This demonstration page uses our WeatherBlox Daily Observations layout. Learn more.

41.55636, -103.73856

Hourly Observations for May 15, 2019

Temp ( °F °C ) Dew Point ( °F °C ) Humidity (%) Winds ( mph kmh ) Pressure ( in mb ) Visibility ( mi km ) Precip ( " mm )
12:53 am 00:53 Clear 54 12.2 46 7.8 75 75 SE 3 6 29.83 1010 10 16.09344 0 0
1:53 am 01:53 Clear 52 11.1 44 6.7 75 75 ESE 7 11 29.83 1010 10 16.09344 0 0
2:53 am 02:53 Clear 49 9.4 43 6.1 80 80 E 7 11 29.83 1010 10 16.09344 0 0
3:53 am 03:53 Clear 49 9.4 43 6.1 80 80 ESE 3 6 29.85 1011 10 16.09344 0 0
4:53 am 04:53 Clear 47 8.3 42 5.6 83 83 undefined N/A 29.85 1011 10 16.09344 0 0
5:53 am 05:53 Sunny 44 6.7 42 5.6 93 93 ENE 3 6 29.85 1011 10 16.09344 0 0
6:53 am 06:53 Sunny 52 11.1 47 8.3 83 83 SE 5 7 29.85 1011 10 16.09344 0 0
7:53 am 07:53 Sunny 59 15 47 8.3 64 64 Calm 29.85 1011 10 16.09344 0 0
8:53 am 08:53 Sunny 64 17.8 48 8.9 56 56 VRB 3 6 29.83 1010 10 16.09344 0 0
9:53 am 09:53 Sunny 70 21.1 49 9.4 47 47 Calm 29.83 1010 10 16.09344 0 0
10:53 am 10:53 Sunny 76 24.4 51 10.6 42 42 Calm 29.8 1009 10 16.09344 0 0
11:53 am 11:53 Sunny 80 26.7 51 10.6 37 37 Calm 29.8 1009 10 16.09344 0 0
12:53 pm 12:53 Sunny 85 29.4 51 10.6 31 31 W 6 9 29.74 1007 10 16.09344 0 0
1:53 pm 13:53 Sunny 86 30 52 11.1 31 31 W 5 7 29.71 1006 10 16.09344 0 0
2:53 pm 14:53 Sunny 86 30 51 10.6 30 30 WSW 6 9 29.71 1006 10 16.09344 0 0
3:53 pm 15:53 Mostly Cloudy with Light Rain 75 23.9 44 6.7 33 33 W 20 31 29.77 1008 10 16.09344 0.001 0.001
4:53 pm 16:53 Sunny 79 26.1 48 8.9 34 34 ESE 7 11 29.74 1007 10 16.09344 0.001 0.001
5:53 pm 17:53 Sunny 77 25 49 9.4 37 37 ESE 12 19 29.71 1006 10 16.09344 0 0
6:53 pm 18:53 Sunny 74 23.3 52 11.1 46 46 SSE 7 11 29.71 1006 10 16.09344 0 0
7:53 pm 19:53 Sunny 72 22.2 52 11.1 50 50 SSE 5 7 29.71 1006 10 16.09344 0 0
8:53 pm 20:53 Mostly Clear 68 20 49 9.4 51 51 SSE 5 7 29.71 1006 10 16.09344 0 0
9:53 pm 21:53 Clear 61 16.1 48 8.9 63 63 ENE 7 11 29.71 1006 10 16.09344 0 0
10:53 pm 22:53 Clear 60 15.6 48 8.9 65 65 ESE 10 17 29.71 1006 10 16.09344 0 0
11:53 pm 23:53 Clear 58 14.4 48 8.9 70 70 ENE 5 7 29.71 1006 10 16.09344 0 0

Powered by AerisWeather